User: anonymous   Login
Location: *
(51.1248°S, 108.4023°W)
Time: 09:42:36
(UTC+00:00)
Language:

Meteor 1-27 Rocket - Orbit

View from above orbital plane
View from above orbital plane
View from above satellite
View from above satellite

Ground track
Ground track

The orbit data is extracted from the following two-line orbital elements,

1 09904U 77024B   21264.68456781  .00000046  00000-0  20439-4 0  9994
2 09904  81.2603  64.8187 0054698 261.8223  97.6740 14.06908727281563
Epoch (UTC): 21 September 2021 16:25:46
Eccentricity: 0.0054698
inclination: 81.2603°
perigee height: 830 km
apogee height: 909 km
right ascension of ascending node: 64.8187°
argument of perigee: 261.8223°
revolutions per day: 14.06908727
mean anomaly at epoch: 97.6740°
orbit number at epoch: 28156

The dashed part of the orbit path shows where the satellite is in the earth's shadow,  

DLR